7M1JBF-11 Weather Reports


time (UTC)temp
C
wind
direction
speed
KPH
gust
KPH
rain 1hr
cm
rain 24hr
cm
rain mn
cm
humidity
%
barometer
mb
20260505151912 16 236 4.8 8.0 0.00 0.00 0.00 100 1022.4
20260505150910 16 229 9.7 11.3 0.00 0.00 0.00 100 1022.5
20260505124851 16 220 4.8 9.7 0.00 0.00 0.00 100 1022.4
20260505123850 16 225 11.3 11.3 0.00 0.00 0.00 100 1022.4
20260505122849 16 194 3.2 11.3 0.00 0.00 0.00 100 1022.3
20260505121847 17 229 6.4 11.3 0.00 0.00 0.00 100 1022.3
20260505120846 17 230 4.8 12.9 0.00 0.00 0.00 100 1022.4
20260505115844 17 118 6.4 12.9 0.00 0.00 0.00 100 1022.2
20260505114843 17 216 6.4 9.7 0.00 0.00 0.00 100 1022.0
20260505113842 17 218 6.4 14.5 0.00 0.00 0.00 100 1022.3
20260505112840 17 212 4.8 9.7 0.00 0.00 0.00 100 1022.2
20260505111839 17 225 8.0 20.9 0.00 0.00 0.00 100 1022.3
20260505110838 17 229 11.3 16.1 0.00 0.00 0.00 100 1022.1
20260505101831 18 211 11.3 20.9 0.00 0.00 0.00 100 1021.4
20260505100829 18 227 8.0 17.7 0.00 0.00 0.00 100 1021.3
20260505095828 18 231 11.3 20.9 0.00 0.00 0.00 100 1021.1
20260505094827 18 222 4.8 12.9 0.00 0.00 0.00 100 1021.0
20260505093827 18 225 20.9 20.9 0.00 0.00 0.00 100 1021.0
20260505092824 18 231 8.0 24.1 0.00 0.00 0.00 100 1020.8
20260505090821 19 229 24.1 24.1 0.00 0.00 0.00 100 1020.7
20260505085820 20 218 12.9 19.3 0.00 0.00 0.00 100 1020.3
20260505084818 20 192 8.0 20.9 0.00 0.00 0.00 100 1020.1
20260505083817 20 240 9.7 16.1 0.00 0.00 0.00 100 1020.2
20260505082816 20 225 16.1 25.7 0.00 0.00 0.00 100 1020.1
20260505081814 20 225 19.3 25.7 0.00 0.00 0.00 100 1020.2
20260505080813 21 231 16.1 17.7 0.00 0.00 0.00 100 1020.0
20260505075812 21 238 17.7 24.1 0.00 0.00 0.00 100 1019.9
20260505074810 21 229 12.9 22.5 0.00 0.00 0.00 100 1019.7
20260505065805 22 238 12.9 17.7 0.00 0.00 0.00 100 1019.2
20260505055755 23 229 6.4 24.1 0.00 0.00 0.00 100 1018.6
20260505051750 24 198 6.4 11.3 0.00 0.00 0.00 100 1018.6
20260505050749 25 225 11.3 11.3 0.00 0.00 0.00 100 1018.9
20260505041742 27 72 1.6 8.0 0.00 0.00 0.00 100 1019.3
20260505035739 26 90 3.2 3.2 0.00 0.00 0.00 100 1019.4
20260505034738 26 45 1.6 4.8 0.00 0.00 0.00 100 1019.5
20260505033736 26 81 3.2 6.4 0.00 0.00 0.00 100 1019.4
20260505032735 26 45 0.0 0.0 0.00 0.00 0.00 100 1019.4
20260505031734 26 306 0.0 4.8 0.00 0.00 0.00 100 1019.4
20260505025731 26 83 0.0 4.8 0.00 0.00 0.00 100 1019.4
20260505024730 27 225 1.6 6.4 0.00 0.00 0.00 100 1019.6
20260505023728 27 90 0.0 3.2 0.00 0.00 0.00 100 1019.5
20260505022727 27 112 0.0 4.8 0.00 0.00 0.00 100 1019.6
20260505021726 27 90 0.0 6.4 0.00 0.00 0.00 100 1019.6
20260505020724 27 90 0.0 3.2 0.00 0.00 0.00 100 1019.6
20260505015723 28 90 0.0 1.6 0.00 0.00 0.00 100 1019.7
20260505014722 28 90 0.0 1.6 0.00 0.00 0.00 100 1019.6
20260505013720 28 90 1.6 3.2 0.00 0.00 0.00 100 1019.5
20260505012720 28 90 1.6 1.6 0.00 0.00 0.00 100 1019.4
20260505010716 29 74 0.0 4.8 0.00 0.00 0.00 100 1019.4
20260505005715 29 65 0.0 4.8 0.00 0.00 0.00 100 1019.6
20260505004713 29 191 0.0 3.2 0.00 0.00 0.00 100 1019.4
20260505003712 29 58 1.6 4.8 0.00 0.00 0.00 100 1019.3
20260505002711 28 90 0.0 3.2 0.00 0.00 0.00 100 1019.2
20260505000708 28 62 0.0 3.2 0.00 0.00 0.00 100 1019.2
20260504235707 28 45 0.0 4.8 0.00 0.00 0.00 100 1019.0
20260504233704 28 63 1.6 3.2 0.00 0.00 0.00 100 1019.1
20260504232702 27 52 1.6 3.2 0.00 0.00 0.00 100 1019.0
20260504231701 27 94 0.0 3.2 0.00 0.00 0.00 100 1019.0
20260504230700 26 135 1.6 4.8 0.00 0.00 0.00 100 1019.1
20260504225658 26 119 0.0 4.8 0.00 0.00 0.00 100 1019.0
20260504223652 25 140 0.0 4.8 0.00 0.00 0.00 100 1018.5
20260504222651 24 58 1.6 3.2 0.00 0.00 0.00 100 1018.4
20260504221648 23 51 1.6 6.4 0.00 0.00 0.00 100 1018.3
20260504220648 23 47 1.6 4.8 0.00 0.00 0.00 100 1018.3
20260504212641 20 116 0.0 1.6 0.00 0.00 0.00 100 1018.0
20260504211641 18 171 0.0 1.6 0.00 0.00 0.00 100 1017.8
20260504210640 17 90 1.6 1.6 0.00 0.00 0.00 100 1017.6
20260504205637 16 225 0.0 1.6 0.00 0.00 0.00 100 1017.2
20260504204636 15 175 0.0 3.2 0.00 0.00 0.00 100 1017.0
20260504203634 15 74 1.6 6.4 0.00 0.00 0.00 100 1017.0
20260504202634 14 90 0.0 3.2 0.00 0.00 0.00 100 1016.7
20260504201632 13 90 0.0 3.2 0.00 0.00 0.00 100 1016.3
20260504200630 13 90 0.0 4.8 0.00 0.00 0.00 100 1016.0
20260504195630 13 90 0.0 4.8 0.00 0.00 0.00 100 1015.7
20260504194628 13 83 1.6 4.8 0.00 0.00 0.00 100 1015.4
20260504193626 13 49 0.0 3.2 0.00 0.00 0.00 100 1015.1
20260504192626 13 67 0.0 8.0 0.00 0.00 0.00 100 1014.8
20260504191625 13 125 1.6 3.2 0.00 0.00 0.00 100 1014.6
20260504190622 13 81 3.2 6.4 0.00 0.00 0.00 100 1014.7
20260504185621 14 119 3.2 6.4 0.00 0.00 0.00 100 1014.4
20260504184619 14 76 4.8 4.8 0.00 0.00 0.00 100 1014.2
20260504183618 14 152 0.0 6.4 0.00 0.00 0.00 100 1014.3
20260504182617 14 90 0.0 4.8 0.00 0.00 0.00 100 1014.0
20260504181615 14 144 0.0 4.8 0.00 0.00 0.00 100 1013.8
20260504180614 14 213 1.6 4.8 0.00 0.00 0.00 100 1013.6
20260504175613 14 199 1.6 4.8 0.00 0.00 0.00 100 1013.3
20260504174611 14 85 3.2 4.8 0.00 0.00 0.00 100 1013.0
20260504173610 14 120 1.6 3.2 0.00 0.00 0.00 100 1012.7
20260504172609 14 187 1.6 4.8 0.00 0.00 0.00 100 1012.4
20260504171607 14 45 1.6 6.4 0.00 0.00 0.00 100 1012.1
20260504170606 14 257 4.8 6.4 0.00 0.00 0.00 100 1011.8